星链-4670 (STARLINK-4670 )

导读

STARLINK-4670是美国SpaceX公司星链(Starlink)卫星互联网星座的成员,于2022年9月5日发射入轨。作为星链低轨星座的组网卫星,它运行在近地轨道,为全球偏远地区、海上、航空等场景提供低延迟高速宽带互联网接入服务。它是星链大规模星座建设的一部分,支撑了星链网络覆盖范围和服务容量的扩张,目前星链已在全球超过150个国家提供服务。

基本信息
目录编号:
53744
目录名称:
STARLINK-4670
国际标识:
2022-107AW
轨道中心:
EARTH
卫星名称:
星链-4670
卫星全名:
星链-4670 (STARLINK-4670 )
卫星状态:
在轨 (已飞行1381 天)
发射日期:
2022-09-05 UTC
国别 :
美国 (US)
星等 :
--
轨道信息
数据来源 国际轨道数据 AOE轨道数据
星历时间 2026-06-17T02:00:39+0800
14小时前
查看轨道信息
2026-06-15T23:00:00+0800
1天前
查看轨道信息
半长轴 6917.929km 6917.852km
偏心率 0.0001192 0.0001488
轨道倾角 53.160° 53.160°
近地点辐角 81.023° 83.742°
升交点赤经 178.950° 184.012°
平近点角 279.090° 279.826°
近地点 538.967km 538.685km
远地点 540.617km 540.745km
周期 95.439分钟 95.437分钟
每日圈数 15.088243 15.088495
详细信息
固有亮度:
5
最大亮度:
2.5
卫星平台:
Starlink v1.5
覆盖范围:
全球
运营商:
太空探索技术公司
运营商所在国:
美国
制造商(研发单位):
太空探索技术公司
制造商所在国:
美国
使用方式:
暂无
卫星简介
星链(Starlink)计划是由太空探索技术公司(SpaceX)提出的一个巨型低轨卫星互联网星座项目,计划在2019年至2024年间在太空搭建由约1.2万颗卫星组成的“星链”网络,其中1584颗将部署在地球上空550千米处的近地轨道,并从2020年开始工作。该卫星仍在工作。
2D轨道图
3D轨道图
轨道高度分析图
轨道倾角分析图
轨道综合分析图
查看轨道综合分析图